TIME,DELAY(SENSOR),PRES,OXYGEN,RAWTEMP,T(OPTODE),TCPHASE,FLUOR,BETA(BETA700),BETA(BETA412),BETA(BETA440),CDOM,C(CSC),ED(ED412.20),ED(ED444.00),ED(ED489.60),ED(ED554.30),LU(LU412.10),LU(LU443.90),LU(LU489.70),LU(LU554.70),COMP,TILTX,TILTY,CHECK
1334202632,5809,870.7999877929688000,40.8798294067382800,560.3433837890625000,4.4752540588378910,55.3819503784179700,55,103,102,79,84,15434,0,0,0,0,2147124342,2147779145,2147574893,2147569910,2935,2,13,53573
1334206228,5809,953.4199829101562000,42.8637390136718750,570.5023193359375000,4.1599497795104980,55.1976814270019500,56,100,102,79,84,15438,0,0,0,0,2147124406,2147783488,2147578331,2147573622,3169,2,13,14806
1334209828,5810,980.7999877929688000,45.0376701354980500,574.0205078125000000,4.0505518913269040,54.9325904846191400,55,101,102,79,84,15441,0,0,0,0,2147125101,2147776475,2147573046,2147572434,3587,2,13,19472
1334213428,5808,991.1799926757812000,45.0294494628906250,574.1981811523438000,4.0450248718261720,54.9354591369628900,55,99,102,78,83,15438,0,0,0,0,2147124260,2147781860,2147583104,2147575122,153,2,13,47587
1334217028,5807,994.7299804687500000,44.4408302307128900,574.1397705078125000,4.0468430519104000,55.0158805847168000,55,100,100,78,83,15438,0,0,0,0,2147127497,2147779264,2147575085,2147570285,198,2,13,9954
1334220628,5812,993.2000122070312000,43.9356498718261700,574.1610107421875000,4.0461812019348145,55.0886802673339840,56,100,102,78,84,15440,0,0,0,0,2147126528,2147773632,2147576868,2147569901,48,2,13,34069
1334224228,5809,1001.3300170898438000,44.1937294006347660,574.0349121093750000,4.0501060485839840,55.0460395812988300,55,100,103,78,84,15439,0,0,0,0,2147126838,2147783341,2147579675,2147572022,281,2,13,52164
1334227828,5810,1007.2899780273438000,44.0557518005371100,573.6787109375000000,4.0611858367919920,55.0635185241699200,55,100,101,79,84,15437,0,0,0,0,2147125065,2147778084,2147577910,2147573312,70,2,13,43352
1334231428,5810,1013.7299804687500000,43.0470008850097660,572.6386718750000000,4.0935330390930180,55.1935806274414060,54,98,103,78,84,15437,0,0,0,0,2147127433,2147780288,2147578157,2147570294,3525,2,13,44637
1334235028,5810,1006.2399902343750000,42.8006515502929700,573.1165161132812000,4.0786738395690920,55.2350616455078100,54,100,102,78,83,15421,0,0,0,0,2147126052,2147778258,2147576484,2147570514,56,2,13,44182
1334238628,5810,1010.0999755859375000,43.1984214782714840,572.8856201171875000,4.0858550071716310,55.1784706115722660,56,98,103,78,84,15419,0,0,0,0,2147126418,2147777197,2147580150,2147569773,3287,2,13,28638
1334242228,5809,1015.5900268554688000,43.7588310241699200,572.8842163085938000,4.0858988761901855,55.0988006591796900,55,98,102,78,85,15418,0,0,0,0,2147123309,2147776118,2147579867,2147571309,3509,2,13,43941
1334245828,5809,1002.9400024414062000,43.7000617980957000,573.6818847656250000,4.0610852241516110,55.1124916076660160,55,101,100,79,85,15416,0,0,0,0,2147123757,2147780224,2147579154,2147571172,742,2,13,61217
1334249428,5808,1011.9199829101562000,43.5602188110351560,573.6937866210938000,4.0607171058654785,55.1329689025878900,55,101,103,78,84,15414,0,0,0,0,2147125476,2147781604,2147578057,2147576164,826,2,13,54260
1334253028,5809,1013.7500000000000000,43.0649108886718750,572.8422241210938000,4.0872058868408200,55.1964797973632800,55,102,102,79,84,15419,0,0,0,0,2147127862,2147784073,2147578816,2147570422,452,2,13,1918
1334256628,5809,1004.0000000000000000,43.5650291442871100,573.8991699218750000,4.0543251037597660,55.1340408325195300,55,101,101,79,85,15417,0,0,0,0,2147126884,2147776978,2147578770,2147570861,122,2,13,7599
1334260228,5808,1005.6199951171875000,44.1359596252441400,573.7263183593750000,4.0597062110900880,55.0586814880371100,55,100,102,79,83,15416,0,0,0,0,2147127744,2147779593,2147575241,2147574564,517,2,13,62675
1334263828,5812,1005.1300048828125000,44.6440811157226560,573.8112792968750000,4.0570621490478520,54.9828910827636700,54,102,102,79,83,15399,0,0,0,0,2147127122,2147775917,2147575734,2147570057,138,2,13,62538
1334267428,5809,1007.2000122070312000,45.4496994018554700,573.8107299804688000,4.0570788383483890,54.8673210144043000,54,99,102,79,83,15406,0,0,0,0,2147127862,2147777572,2147576585,2147571456,324,2,13,5114
1334271028,5808,1007.4899902343750000,45.8707809448242200,573.8236083984375000,4.0566787719726560,54.8087081909179700,55,101,103,78,84,15403,0,0,0,0,2147124544,2147776886,2147576027,2147571483,3537,2,13,35504
1334274628,5810,998.5300292968750000,45.0078697204589840,575.2456054687500000,4.0124340057373050,54.9491386413574200,55,101,101,79,85,15402,0,0,0,0,2147125412,2147780534,2147577718,2147572516,145,2,13,28367
1334278228,5810,1016.5399780273438000,45.8955192565918000,573.7177734375000000,4.0599708557128910,54.8047904968261700,56,99,102,79,83,15404,0,0,0,0,2147127122,2147777581,2147574893,2147573110,3189,2,13,63657
1334281828,5808,1007.9299926757812000,45.2332801818847660,573.8538818359375000,4.0557370185852050,54.9025611877441400,55,102,102,79,83,15404,0,0,0,0,2147125440,2147775542,2147579483,2147570587,331,2,13,60835
1334285428,5809,1022.4500122070312000,45.2148094177246100,573.3856811523438000,4.0702967643737790,54.8948516845703100,56,104,103,78,83,15403,0,0,0,0,2147127140,2147782134,2147576064,2147571181,2688,2,13,22472
1334289028,5810,1022.9199829101562000,43.7364006042480500,573.1005249023438000,4.0791702270507810,55.1018409729003900,56,99,101,79,83,15378,0,0,0,0,2147124013,2147781083,2147579154,2147571830,214,2,13,65121
1334292628,5812,1027.6400146484375000,42.9242515563964840,572.1171875000000000,4.1097469329833980,55.2049102783203100,55,100,102,79,84,15376,0,0,0,0,2147127524,2147777545,2147572544,2147569307,116,2,13,46888
1334296228,5810,1028.1199951171875000,42.7176895141601560,571.6337890625000000,4.1247792243957520,55.2305908203125000,55,99,102,78,83,15377,0,0,0,0,2147128640,2147778185,2147576009,2147571382,44,2,13,59943
1334299828,5811,1031.0100097656250000,41.6026496887207000,571.7556152343750000,4.1209931373596190,55.3981399536132800,55,103,101,79,83,15373,0,0,0,0,2147125330,2147777865,2147580754,2147572827,10,2,13,4494
1334303428,5808,1027.1199951171875000,42.3063087463378900,573.1649169921875000,4.0771689414978030,55.3110694885253900,55,100,103,78,82,15377,0,0,0,0,2147127506,2147778468,2147575122,2147572571,292,2,13,8245
1334307028,5809,1017.6300048828125000,41.4299316406250000,573.1641845703125000,4.0771880149841310,55.4365310668945300,55,99,101,79,84,15374,0,0,0,0,2147127826,2147779675,2147577216,2147572278,211,2,13,54947
1334310628,5811,1019.4899902343750000,43.2716102600097660,573.8253784179688000,4.0566229820251465,55.1788406372070300,55,102,102,78,85,15376,0,0,0,0,2147128640,2147777490,2147572397,2147571282,3330,2,13,17926
1334314228,5809,1020.5499877929688000,44.5042800903320300,573.9489746093750000,4.0527777671813965,55.0056495666503900,56,100,102,78,84,15375,0,0,0,0,2147130166,2147778898,2147574217,2147569627,166,2,13,4943
1334317828,5809,1013.9400024414062000,43.0513992309570300,573.8568115234375000,4.0556468963623050,55.2096481323242200,55,102,102,78,83,15370,0,0,0,0,2147126491,2147777014,2147573732,2147571200,144,2,13,49030
1334321428,5811,1011.9600219726562000,45.4655914306640600,573.9619750976562000,4.0523738861083980,54.8667106628418000,55,101,101,79,83,15373,0,0,0,0,2147125376,2147779200,2147579227,2147568384,56,2,13,19190
1334325028,5809,1016.8400268554688000,45.2518692016601560,574.0603027343750000,4.0493140220642090,54.8988189697265600,54,101,102,79,83,15358,0,0,0,0,2147127488,2147780443,2147572672,2147573814,694,2,13,34580
1334328628,5808,1016.3400268554688000,45.9913902282714840,573.9887695312500000,4.0515379905700680,54.7970886230468750,55,102,102,79,85,15353,0,0,0,0,2147127277,2147779382,2147578148,2147572553,333,2,13,5954
1334332228,5808,1020.5200195312500000,45.8190307617187500,574.0576782226562000,4.0493950843811035,54.8218193054199200,55,100,103,79,83,15355,0,0,0,0,2147130560,2147777846,2147577334,2147573970,182,2,13,45965
1334335828,5811,1019.8800048828125000,44.3522796630859400,574.0156250000000000,4.0507068634033200,55.0273208618164060,55,99,101,81,84,15357,0,0,0,0,2147125641,2147777526,2147575872,2147572141,3433,2,13,39527
1334339428,5812,1027.6300048828125000,43.8613700866699200,573.6315917968750000,4.0626511573791500,55.0929298400878900,55,98,102,78,84,15356,0,0,0,0,2147126436,2147778294,2147576420,2147573138,3406,2,13,52023
1334343028,5811,1033.4000244140625000,43.2119407653808600,572.8148193359375000,4.0880570411682130,55.1754188537597660,56,99,101,79,83,15353,0,0,0,0,2147126299,2147779392,2147578742,2147574793,3077,2,13,27518
1334346655,5810,1036.8699951171875000,42.8093299865722660,571.4663085937500000,4.1299858093261720,55.2195816040039060,55,99,101,79,84,15352,0,0,0,0,2147123876,2147777673,2147578221,2147569892,68,2,13,10942
